Home   Weather   Rio de Janeiro   Past weeks
Flag for Brazil

Past Weather in Rio de Janeiro, Rio de Janeiro, Brazil — Yesterday and Last 2 Weeks

Now
82 °F

Clear.


Feels Like: 88 °F
Forecast: 93 / 79 °F
Wind: 5 mph from North

Location: Rio De Janeiro Airport

Current Time: Jan 24, 2019 at 8:46:38 am

Latest Report: Jan 24, 2019 at 8:00 am


Visibility: 6 mi

Pressure: 29.92 "Hg

Humidity: 74%

Dew Point: 73 °F

Location of Rio de JaneiroLocation

Past Weather in Rio de Janeiro — Graph

°F

Rio de Janeiro Temperature Yesterday

Maximum temperature yesterday: 91 °F (at 12:00 pm)
Minimum temperature yesterday: 81 °F (at 4:00 am)
Average temperature yesterday: 85 °F

High & Low Weather Summary for the Past Weeks

 TemperatureHumidityPressure
High95 °F (Jan 9, 4:00 pm)100% (Jan 18, 3:00 am)30.01 "Hg (Jan 18, 3:00 am)
Low75 °F (Jan 12, 12:00 am)44% (Jan 10, 12:00 pm)29.74 "Hg (Jan 19, 6:00 pm)
Average84 °F75%29.91 "Hg
* Reported Jan 9 7:00 am — Jan 24 7:00 am, Rio de Janeiro. Weather by CustomWeather, © 2019

Note: Actual official high and low records may vary slightly from our data, if they occured in-between our weather recording intervals... More about our weather records

Advertising

Rio de Janeiro Weather History for the Previous 24 Hours

Scroll right to see more
 ConditionsComfort  
Time TempWeatherWind HumidityBarometerVisibility
7:00 am
Thu, Jan 24
81 °FSunny.6 mph79%29.92 "Hg10 mi
6:00 am81 °FClear.2 mph79%29.92 "Hg10 mi
5:00 am79 °FClear.2 mph84%29.89 "Hg10 mi
4:00 am81 °FClear.1 mph79%29.89 "Hg10 mi
3:00 am81 °FClear.5 mph84%29.89 "Hg10 mi
2:00 am81 °FClear.5 mph89%29.92 "Hg10 mi
1:00 am81 °FClear.2 mph94%29.92 "Hg10 mi
12:00 am82 °FClear.3 mph84%29.95 "Hg10 mi
11:00 pm
Wed, Jan 23
84 °FPassing clouds.9 mph74%29.95 "HgN/A
10:00 pm84 °FPassing clouds.8 mph74%29.92 "HgN/A
9:00 pm86 °FPassing clouds.9 mph66%29.92 "HgN/A
8:00 pm84 °FPassing clouds.10 mph66%29.89 "HgN/A
7:00 pm86 °FPassing clouds.14 mph70%29.89 "HgN/A
6:00 pm88 °FScattered clouds.15 mph70%29.89 "HgN/A
5:00 pm90 °FScattered clouds.15 mph67%29.89 "HgN/A
4:00 pm91 °FScattered clouds.14 mph67%29.89 "HgN/A
3:00 pm91 °FScattered clouds.13 mph71%29.92 "HgN/A
2:00 pm91 °FScattered clouds.12 mph67%29.95 "Hg6 mi
1:00 pm91 °FScattered clouds.10 mph71%29.98 "Hg6 mi
12:00 pm91 °FScattered clouds.10 mph71%29.98 "Hg6 mi
11:00 am90 °FScattered clouds.3 mph71%29.98 "Hg5 mi
10:00 am88 °FPartly sunny.3 mph75%29.98 "Hg5 mi
9:00 am84 °FPartly sunny.6 mph84%29.98 "Hg5 mi
8:00 am82 °FPartly sunny.5 mph89%29.95 "Hg5 mi
Weather by CustomWeather, © 2019

See weather overview